Welcome to Northern Hawkes Bay. New Zealand.
PWS Header
      nz Flag



Hit Counter


W3C Valid W3C Valid logo


    Wairoa

Select any of the Stations below to visit their websites.










Historic Data from Weather Underground
Select the location of interest below. Wairoa is the default. Please have patience, this Data is slow to load in.
Northern Hawkes Bay Historical Data
Daily Summary for June 8, 2017 Units:  Metric    English   Both
« Previous Day
Next Day »
Daily Weekly Monthly Yearly Custom
  High: Low: Average:
Temperature: 13.4 °C 9.7 °C 11.4 °C
Dew Point: 9.2 °C 4.7 °C 6.3 °C
Humidity: 96% 62% 71%
Wind Speed: 36.7km/h 8.7km/h 19.5km/h
Wind Gust: 48.9km/h - -
Wind- - SW
Pressure: 1021.6 hPa 1018.5 hPa -
Precipitation: 11.9 mm    
Historical Graphs
 
 
Tabular Data for June 8, 2017
Time Temperature Dew Point Pressure Wind Wind Speed Wind Gust Humidity Rainfall Rate (Hourly) solar
00:02 11.6 °C 5.7 °C 1018.5 hPa WSW 20.9 km/h 34.3 km/h 67% 0.0 mm 0 W/m2
00:07 11.6 °C 5.9 °C 1018.5 hPa WSW 28.0 km/h 37.8 km/h 68% 0.0 mm 0 W/m2
00:12 11.6 °C 5.7 °C 1018.5 hPa SW 21.9 km/h 43.9 km/h 67% 0.0 mm 0 W/m2
00:17 11.6 °C 5.7 °C 1018.5 hPa SW 25.6 km/h 43.9 km/h 67% 0.0 mm 0 W/m2
00:22 11.5 °C 5.8 °C 1018.5 hPa SW 19.5 km/h 41.7 km/h 68% 0.0 mm 0 W/m2
00:27 11.5 °C 6.0 °C 1018.5 hPa WSW 24.5 km/h 37.8 km/h 69% 0.0 mm 0 W/m2
00:32 11.5 °C 5.8 °C 1018.5 hPa WSW 24.5 km/h 43.9 km/h 68% 0.0 mm 0 W/m2
00:37 11.5 °C 6.0 °C 1018.5 hPa WSW 17.2 km/h 43.9 km/h 69% 0.0 mm 0 W/m2
00:42 11.4 °C 5.9 °C 1018.5 hPa WSW 20.9 km/h 35.6 km/h 69% 0.0 mm 0 W/m2
00:47 11.4 °C 5.7 °C 1018.5 hPa West 21.9 km/h 37.8 km/h 68% 0.0 mm 0 W/m2
00:52 11.5 °C 5.8 °C 1018.5 hPa West 18.3 km/h 37.8 km/h 68% 0.0 mm 0 W/m2
00:57 11.5 °C 6.0 °C 1018.5 hPa WSW 18.3 km/h 36.7 km/h 69% 0.0 mm 0 W/m2
01:02 11.5 °C 5.6 °C 1018.5 hPa SW 24.5 km/h 39.3 km/h 67% 0.0 mm 0 W/m2
01:07 11.5 °C 5.8 °C 1018.5 hPa SW 17.2 km/h 39.3 km/h 68% 0.0 mm 0 W/m2
01:10 11.5 °C 6.0 °C 1018.8 hPa SW 18.3 km/h 39.3 km/h 69% 0.0 mm 0 W/m2
01:15 11.5 °C 5.6 °C 1018.5 hPa WSW 30.6 km/h 37.8 km/h 67% 0.0 mm 0 W/m2
01:20 11.5 °C 5.8 °C 1018.5 hPa WSW 23.3 km/h 40.4 km/h 68% 0.0 mm 0 W/m2
01:25 11.5 °C 5.8 °C 1018.8 hPa WSW 25.6 km/h 40.4 km/h 68% 0.0 mm 0 W/m2
01:30 11.4 °C 5.7 °C 1018.8 hPa SW 24.5 km/h 39.3 km/h 68% 0.0 mm 0 W/m2
01:36 11.4 °C 5.9 °C 1018.8 hPa SW 19.5 km/h 35.6 km/h 69% 0.0 mm 0 W/m2
01:41 11.4 °C 5.7 °C 1018.8 hPa WSW 17.2 km/h 36.7 km/h 68% 0.0 mm 0 W/m2
01:46 11.3 °C 5.6 °C 1018.8 hPa SW 25.6 km/h 46.5 km/h 68% 0.0 mm 0 W/m2
01:51 11.2 °C 5.7 °C 1019.2 hPa SW 19.5 km/h 46.5 km/h 69% 0.0 mm 0 W/m2
01:56 11.2 °C 5.7 °C 1018.8 hPa WSW 28.0 km/h 42.8 km/h 69% 0.0 mm 0 W/m2
02:00 11.2 °C 5.9 °C 1019.2 hPa WSW 20.9 km/h 40.4 km/h 70% 0.0 mm 0 W/m2
02:06 11.1 °C 5.8 °C 1019.2 hPa SW 18.3 km/h 36.7 km/h 70% 0.0 mm 0 W/m2
02:11 11.0 °C 5.7 °C 1018.8 hPa West 20.9 km/h 36.7 km/h 70% 0.0 mm 0 W/m2
02:16 10.9 °C 6.1 °C 1019.2 hPa West 15.8 km/h 43.9 km/h 72% 0.0 mm 0 W/m2
02:21 10.9 °C 6.3 °C 1019.2 hPa WSW 23.3 km/h 43.9 km/h 73% 0.0 mm 0 W/m2
02:26 10.9 °C 6.3 °C 1019.2 hPa SW 17.2 km/h 36.7 km/h 73% 0.0 mm 0 W/m2
02:31 10.8 °C 6.2 °C 1019.2 hPa SW 15.8 km/h 39.3 km/h 73% 0.0 mm 0 W/m2
02:36 10.8 °C 6.2 °C 1019.2 hPa SW 24.5 km/h 39.3 km/h 73% 0.0 mm 0 W/m2
02:41 10.9 °C 6.1 °C 1019.2 hPa SW 17.2 km/h 45.4 km/h 72% 0.0 mm 0 W/m2
02:46 10.8 °C 5.8 °C 1019.2 hPa SW 18.3 km/h 45.4 km/h 71% 0.0 mm 0 W/m2
02:51 10.8 °C 5.9 °C 1019.5 hPa WSW 20.9 km/h 40.4 km/h 72% 0.0 mm 0 W/m2
02:56 10.8 °C 5.9 °C 1019.2 hPa West 19.5 km/h 40.4 km/h 72% 0.0 mm 0 W/m2
03:01 10.9 °C 6.1 °C 1019.2 hPa WSW 18.3 km/h 36.7 km/h 72% 0.0 mm 0 W/m2
03:06 11.0 °C 5.9 °C 1019.2 hPa WSW 21.9 km/h 33.1 km/h 71% 0.0 mm 0 W/m2
03:11 11.0 °C 5.9 °C 1019.2 hPa WSW 25.6 km/h 37.8 km/h 71% 0.0 mm 0 W/m2
03:16 10.9 °C 6.1 °C 1019.2 hPa WSW 14.8 km/h 37.8 km/h 72% 0.0 mm 0 W/m2
03:21 10.9 °C 6.3 °C 1019.2 hPa WSW 19.5 km/h 37.8 km/h 73% 0.0 mm 0 W/m2
03:26 10.9 °C 6.1 °C 1019.2 hPa SW 15.8 km/h 36.7 km/h 72% 0.0 mm 0 W/m2
03:43 10.8 °C 5.8 °C 1019.2 hPa West 19.5 km/h 24.5 km/h 71% 0.0 mm 0 W/m2
03:48 10.9 °C 6.1 °C 1019.2 hPa West 13.4 km/h 27.0 km/h 72% 0.0 mm 0 W/m2
03:53 11.0 °C 5.7 °C 1019.2 hPa WSW 13.4 km/h 31.7 km/h 70% 0.0 mm 0 W/m2
03:58 10.9 °C 5.8 °C 1019.2 hPa WSW 14.8 km/h 31.7 km/h 71% 0.0 mm 0 W/m2
04:03 10.9 °C 5.7 °C 1019.2 hPa West 15.8 km/h 29.4 km/h 70% 0.0 mm 0 W/m2
04:08 10.9 °C 5.8 °C 1019.2 hPa West 24.5 km/h 31.7 km/h 71% 0.0 mm 0 W/m2
04:13 10.9 °C 5.7 °C 1018.8 hPa WSW 23.3 km/h 31.7 km/h 70% 0.0 mm 0 W/m2
04:18 10.9 °C 5.7 °C 1018.8 hPa WSW 8.7 km/h 31.7 km/h 70% 0.0 mm 0 W/m2
04:23 10.9 °C 5.7 °C 1018.8 hPa WSW 9.7 km/h 31.7 km/h 70% 0.0 mm 0 W/m2
04:28 11.0 °C 5.7 °C 1018.8 hPa WSW 15.8 km/h 31.7 km/h 70% 0.0 mm 0 W/m2
04:33 11.0 °C 5.6 °C 1019.2 hPa SW 19.5 km/h 30.6 km/h 69% 0.0 mm 0 W/m2
04:38 11.0 °C 5.6 °C 1019.2 hPa WSW 13.4 km/h 31.7 km/h 69% 0.0 mm 0 W/m2
04:43 11.0 °C 5.6 °C 1019.2 hPa WSW 11.1 km/h 31.7 km/h 69% 0.0 mm 0 W/m2
04:48 11.0 °C 5.7 °C 1018.8 hPa SW 20.9 km/h 31.7 km/h 70% 0.0 mm 0 W/m2
04:53 11.0 °C 5.7 °C 1019.2 hPa WSW 14.8 km/h 31.7 km/h 70% 0.0 mm 0 W/m2
04:58 11.0 °C 5.9 °C 1018.8 hPa WSW 17.2 km/h 28.0 km/h 71% 0.0 mm 0 W/m2
05:04 11.0 °C 5.6 °C 1019.2 hPa SW 15.8 km/h 29.4 km/h 69% 0.0 mm 0 W/m2
05:09 11.1 °C 5.8 °C 1019.2 hPa SW 18.3 km/h 30.6 km/h 70% 0.0 mm 0 W/m2
05:14 11.2 °C 6.2 °C 1019.2 hPa WSW 20.9 km/h 33.1 km/h 71% 0.0 mm 0 W/m2
05:19 11.2 °C 6.2 °C 1019.2 hPa SW 20.9 km/h 33.1 km/h 71% 0.0 mm 0 W/m2
05:24 11.2 °C 6.2 °C 1019.2 hPa SW 21.9 km/h 33.1 km/h 71% 0.0 mm 0 W/m2
05:29 11.2 °C 6.3 °C 1019.2 hPa WSW 23.3 km/h 40.4 km/h 72% 0.0 mm 0 W/m2
05:34 11.1 °C 6.2 °C 1019.2 hPa WSW 15.8 km/h 40.4 km/h 72% 0.0 mm 0 W/m2
05:39 10.9 °C 6.4 °C 1019.2 hPa WSW 18.3 km/h 33.1 km/h 74% 0.0 mm 0 W/m2
05:44 11.0 °C 6.2 °C 1019.2 hPa SW 19.5 km/h 34.3 km/h 72% 0.0 mm 0 W/m2
05:49 11.1 °C 6.2 °C 1019.2 hPa SW 18.3 km/h 36.7 km/h 72% 0.0 mm 0 W/m2
05:54 11.2 °C 6.3 °C 1019.2 hPa SW 17.2 km/h 36.7 km/h 72% 0.0 mm 0 W/m2
05:59 11.2 °C 6.2 °C 1019.2 hPa SW 14.8 km/h 30.6 km/h 71% 0.0 mm 0 W/m2
06:04 11.2 °C 6.2 °C 1019.5 hPa SW 18.3 km/h 30.6 km/h 71% 0.0 mm 0 W/m2
06:09 11.2 °C 6.2 °C 1019.5 hPa WSW 15.8 km/h 29.4 km/h 71% 0.0 mm 0 W/m2
06:13 11.2 °C 6.2 °C 1019.5 hPa WSW 19.5 km/h 28.0 km/h 71% 0.0 mm 0 W/m2
06:18 11.2 °C 5.9 °C 1019.2 hPa WSW 15.8 km/h 39.3 km/h 70% 0.0 mm 0 W/m2
06:23 11.3 °C 6.2 °C 1019.5 hPa WSW 17.2 km/h 39.3 km/h 71% 0.0 mm 0 W/m2
06:28 11.3 °C 6.2 °C 1019.2 hPa WSW 18.3 km/h 36.7 km/h 71% 0.0 mm 0 W/m2
06:33 11.3 °C 6.1 °C 1019.5 hPa WSW 20.9 km/h 36.7 km/h 70% 0.0 mm 0 W/m2
06:38 11.3 °C 6.1 °C 1019.5 hPa WSW 20.9 km/h 35.6 km/h 70% 0.0 mm 0 W/m2
06:43 11.2 °C 5.7 °C 1019.5 hPa WSW 21.9 km/h 35.6 km/h 69% 0.0 mm 0 W/m2
06:48 11.3 °C 5.6 °C 1019.5 hPa SW 18.3 km/h 39.3 km/h 68% 0.0 mm 0 W/m2
06:53 11.2 °C 5.3 °C 1019.5 hPa SW 21.9 km/h 43.9 km/h 67% 0.0 mm 0 W/m2
06:58 11.2 °C 5.5 °C 1019.9 hPa SW 27.0 km/h 43.9 km/h 68% 0.0 mm 0 W/m2
07:03 11.2 °C 5.3 °C 1019.9 hPa WSW 23.3 km/h 42.8 km/h 67% 0.0 mm 0 W/m2
07:09 11.2 °C 5.5 °C 1019.9 hPa SW 31.7 km/h 42.8 km/h 68% 0.0 mm 0 W/m2
07:14 11.2 °C 5.3 °C 1019.9 hPa SW 18.3 km/h 42.8 km/h 67% 0.0 mm 0 W/m2
07:19 11.1 °C 5.2 °C 1019.9 hPa SW 24.5 km/h 40.4 km/h 67% 0.0 mm 0 W/m2
07:24 11.1 °C 5.2 °C 1020.2 hPa SW 20.9 km/h 39.3 km/h 67% 0.0 mm 1 W/m2
07:29 11.0 °C 5.3 °C 1020.5 hPa SW 25.6 km/h 46.5 km/h 68% 0.0 mm 2 W/m2
07:34 11.0 °C 5.1 °C 1020.2 hPa SW 17.2 km/h 46.5 km/h 67% 0.0 mm 4 W/m2
07:39 11.0 °C 5.3 °C 1020.2 hPa SW 18.3 km/h 46.5 km/h 68% 0.0 mm 4 W/m2
07:44 11.0 °C 5.3 °C 1020.5 hPa SW 17.2 km/h 37.8 km/h 68% 0.0 mm 7 W/m2
07:49 11.0 °C 4.9 °C 1020.5 hPa SW 21.9 km/h 39.3 km/h 66% 0.0 mm 11 W/m2
07:54 11.0 °C 5.1 °C 1020.5 hPa SW 21.9 km/h 41.7 km/h 67% 0.0 mm 13 W/m2
07:59 11.0 °C 4.7 °C 1020.5 hPa SW 19.5 km/h 41.7 km/h 65% 0.0 mm 15 W/m2
08:04 11.0 °C 5.1 °C 1020.5 hPa SW 23.3 km/h 37.8 km/h 67% 0.0 mm 18 W/m2
08:09 11.1 °C 5.0 °C 1020.5 hPa SW 20.9 km/h 37.8 km/h 66% 0.0 mm 20 W/m2
08:14 11.1 °C 5.0 °C 1020.5 hPa SW 19.5 km/h 40.4 km/h 66% 0.0 mm 20 W/m2
08:19 11.0 °C 5.1 °C 1020.5 hPa SW 23.3 km/h 40.4 km/h 67% 0.0 mm 25 W/m2
08:24 11.0 °C 4.7 °C 1020.9 hPa SW 21.9 km/h 40.4 km/h 65% 0.0 mm 30 W/m2
08:29 10.9 °C 4.8 °C 1020.5 hPa WSW 18.3 km/h 40.4 km/h 66% 0.0 mm 31 W/m2
08:34 10.9 °C 5.2 °C 1020.9 hPa WSW 21.9 km/h 37.8 km/h 68% 0.0 mm 46 W/m2
08:39 10.9 °C 5.0 °C 1020.5 hPa West 27.0 km/h 41.7 km/h 67% 0.0 mm 79 W/m2
08:44 11.1 °C 4.8 °C 1020.9 hPa WSW 25.6 km/h 41.7 km/h 65% 0.0 mm 65 W/m2
08:49 11.1 °C 4.8 °C 1020.5 hPa SW 24.5 km/h 43.9 km/h 65% 0.0 mm 63 W/m2
08:54 11.1 °C 5.0 °C 1020.9 hPa WSW 17.2 km/h 43.9 km/h 66% 0.0 mm 54 W/m2
08:59 11.1 °C 5.0 °C 1020.9 hPa WSW 19.5 km/h 42.8 km/h 66% 0.0 mm 50 W/m2
09:04 11.1 °C 5.0 °C 1020.9 hPa WSW 28.0 km/h 40.4 km/h 66% 0.0 mm 58 W/m2
09:09 11.1 °C 5.0 °C 1020.9 hPa WSW 18.3 km/h 46.5 km/h 66% 0.0 mm 60 W/m2
09:14 11.1 °C 5.0 °C 1020.9 hPa WSW 28.0 km/h 48.9 km/h 66% 0.0 mm 57 W/m2
09:19 10.8 °C 5.3 °C 1020.9 hPa WSW 31.7 km/h 48.9 km/h 69% 0.0 mm 73 W/m2
09:24 10.8 °C 5.6 °C 1020.9 hPa WSW 28.0 km/h 42.8 km/h 70% 0.0 mm 65 W/m2
09:29 10.8 °C 5.1 °C 1021.2 hPa WSW 21.9 km/h 41.7 km/h 68% 0.0 mm 77 W/m2
09:34 10.9 °C 5.2 °C 1020.9 hPa WSW 21.9 km/h 40.4 km/h 68% 0.0 mm 90 W/m2
09:39 11.1 °C 5.0 °C 1021.2 hPa WSW 27.0 km/h 40.4 km/h 66% 0.0 mm 108 W/m2
09:44 11.2 °C 5.3 °C 1020.9 hPa WSW 14.8 km/h 40.4 km/h 67% 0.0 mm 122 W/m2
09:49 11.2 °C 5.3 °C 1021.2 hPa WSW 19.5 km/h 40.4 km/h 67% 0.0 mm 92 W/m2
09:54 11.1 °C 5.4 °C 1021.2 hPa SW 19.5 km/h 35.6 km/h 68% 0.0 mm 85 W/m2
09:59 11.1 °C 5.0 °C 1021.2 hPa SW 23.3 km/h 42.8 km/h 66% 0.0 mm 114 W/m2
10:04 11.2 °C 5.3 °C 1021.2 hPa SW 14.8 km/h 42.8 km/h 67% 0.0 mm 96 W/m2
10:09 11.1 °C 5.0 °C 1021.2 hPa WSW 29.4 km/h 37.8 km/h 66% 0.0 mm 83 W/m2
10:14 11.1 °C 5.0 °C 1021.2 hPa SW 19.5 km/h 36.7 km/h 66% 0.0 mm 71 W/m2
10:19 11.1 °C 5.2 °C 1021.2 hPa WSW 27.0 km/h 37.8 km/h 67% 0.0 mm 113 W/m2
10:24 11.0 °C 4.9 °C 1021.2 hPa WSW 18.3 km/h 37.8 km/h 66% 0.0 mm 79 W/m2
10:29 11.1 °C 5.2 °C 1021.2 hPa SW 20.9 km/h 37.8 km/h 67% 0.0 mm 76 W/m2
10:34 11.1 °C 5.4 °C 1021.6 hPa SW 19.5 km/h 45.4 km/h 68% 0.0 mm 71 W/m2
10:39 11.1 °C 5.4 °C 1021.2 hPa WSW 30.6 km/h 45.4 km/h 68% 0.0 mm 94 W/m2
10:44 11.1 °C 5.4 °C 1021.2 hPa WSW 18.3 km/h 37.8 km/h 68% 0.0 mm 79 W/m2
10:49 11.1 °C 5.4 °C 1021.2 hPa SW 24.5 km/h 37.8 km/h 68% 0.0 mm 118 W/m2
10:54 11.3 °C 6.1 °C 1021.6 hPa SW 20.9 km/h 36.7 km/h 70% 0.0 mm 133 W/m2
11:00 11.4 °C 6.1 °C 1021.2 hPa SW 24.5 km/h 41.7 km/h 70% 0.0 mm 104 W/m2
11:05 11.3 °C 6.1 °C 1021.2 hPa SW 18.3 km/h 41.7 km/h 70% 0.0 mm 80 W/m2
11:10 11.4 °C 6.3 °C 1021.2 hPa SW 27.0 km/h 40.4 km/h 71% 0.0 mm 142 W/m2
11:15 11.8 °C 6.5 °C 1021.6 hPa SW 25.6 km/h 42.8 km/h 70% 0.0 mm 195 W/m2
11:20 11.7 °C 6.4 °C 1021.6 hPa SW 18.3 km/h 42.8 km/h 70% 0.0 mm 113 W/m2
11:25 11.6 °C 6.3 °C 1021.6 hPa SSW 25.6 km/h 37.8 km/h 70% 0.0 mm 187 W/m2
11:30 11.7 °C 6.0 °C 1021.2 hPa SW 23.3 km/h 33.1 km/h 68% 0.0 mm 121 W/m2
11:35 11.6 °C 5.7 °C 1021.2 hPa SW 19.5 km/h 36.7 km/h 67% 0.0 mm 98 W/m2
11:40 11.5 °C 5.6 °C 1021.2 hPa SW 20.9 km/h 36.7 km/h 67% 0.0 mm 89 W/m2
11:45 11.6 °C 5.7 °C 1020.9 hPa SW 20.9 km/h 35.6 km/h 67% 0.0 mm 138 W/m2
11:50 11.7 °C 5.8 °C 1020.9 hPa SW 17.2 km/h 35.6 km/h 67% 0.0 mm 108 W/m2
11:55 11.8 °C 5.9 °C 1020.9 hPa WSW 18.3 km/h 34.3 km/h 67% 0.0 mm 177 W/m2
12:00 11.8 °C 5.4 °C 1020.9 hPa SW 24.5 km/h 35.6 km/h 65% 0.0 mm 136 W/m2
12:05 11.6 °C 5.7 °C 1020.9 hPa SW 18.3 km/h 35.6 km/h 67% 0.0 mm 83 W/m2
12:10 11.7 °C 5.8 °C 1020.9 hPa SSW 21.9 km/h 35.6 km/h 67% 0.0 mm 104 W/m2
12:15 12.1 °C 5.5 °C 1020.9 hPa SW 19.5 km/h 39.3 km/h 64% 0.0 mm 96 W/m2
12:20 11.9 °C 5.9 °C 1020.9 hPa WSW 15.8 km/h 39.3 km/h 67% 0.0 mm 167 W/m2
12:25 12.0 °C 5.4 °C 1020.9 hPa SW 31.7 km/h 37.8 km/h 64% 0.0 mm 136 W/m2
12:30 12.3 °C 5.7 °C 1020.9 hPa SW 15.8 km/h 37.8 km/h 64% 0.0 mm 166 W/m2
12:35 12.3 °C 5.4 °C 1020.9 hPa WSW 27.0 km/h 37.8 km/h 63% 0.0 mm 105 W/m2
12:40 11.9 °C 5.6 °C 1020.9 hPa WSW 17.2 km/h 36.7 km/h 65% 0.0 mm 114 W/m2
12:45 11.9 °C 5.6 °C 1020.9 hPa WSW 15.8 km/h 33.1 km/h 65% 0.0 mm 118 W/m2
12:50 12.1 °C 5.7 °C 1020.9 hPa WSW 18.3 km/h 37.8 km/h 65% 0.0 mm 148 W/m2
12:55 12.1 °C 5.7 °C 1020.9 hPa WSW 14.8 km/h 37.8 km/h 65% 0.0 mm 152 W/m2
13:00 12.0 °C 5.6 °C 1020.5 hPa WSW 14.8 km/h 30.6 km/h 65% 0.0 mm 110 W/m2
13:05 12.0 °C 5.6 °C 1020.5 hPa West 21.9 km/h 29.4 km/h 65% 0.0 mm 139 W/m2
13:10 12.0 °C 5.6 °C 1020.5 hPa WSW 21.9 km/h 29.4 km/h 65% 0.0 mm 128 W/m2
13:15 12.0 °C 5.6 °C 1020.2 hPa WSW 19.5 km/h 31.7 km/h 65% 0.0 mm 142 W/m2
13:20 12.4 °C 6.0 °C 1020.2 hPa WSW 19.5 km/h 31.7 km/h 65% 0.0 mm 158 W/m2
13:25 12.9 °C 6.5 °C 1020.2 hPa WSW 13.4 km/h 27.0 km/h 65% 0.0 mm 160 W/m2
13:30 12.5 °C 5.9 °C 1020.2 hPa WSW 15.8 km/h 31.7 km/h 64% 0.0 mm 115 W/m2
13:35 12.3 °C 5.9 °C 1020.2 hPa WSW 13.4 km/h 31.7 km/h 65% 0.0 mm 131 W/m2
13:37 12.2 °C 5.8 °C 1020.2 hPa WSW 14.8 km/h 28.0 km/h 65% 0.0 mm 128 W/m2
13:42 12.3 °C 6.1 °C 1020.2 hPa SW 19.5 km/h 31.7 km/h 66% 0.0 mm 132 W/m2
13:47 12.1 °C 5.7 °C 1020.2 hPa SW 14.8 km/h 31.7 km/h 65% 0.0 mm 98 W/m2
13:52 12.0 °C 5.4 °C 1020.2 hPa SW 12.2 km/h 35.6 km/h 64% 0.0 mm 103 W/m2
13:57 12.1 °C 5.7 °C 1019.9 hPa SW 14.8 km/h 35.6 km/h 65% 0.0 mm 128 W/m2
14:02 12.2 °C 5.8 °C 1020.2 hPa WSW 14.8 km/h 30.6 km/h 65% 0.0 mm 138 W/m2
14:07 12.3 °C 6.1 °C 1020.2 hPa WSW 14.8 km/h 27.0 km/h 66% 0.0 mm 108 W/m2
14:12 12.8 °C 6.4 °C 1019.9 hPa SW 12.2 km/h 31.7 km/h 65% 0.0 mm 112 W/m2
14:17 12.5 °C 5.9 °C 1019.9 hPa SW 17.2 km/h 31.7 km/h 64% 0.0 mm 77 W/m2
14:22 12.2 °C 5.6 °C 1019.9 hPa SW 15.8 km/h 29.4 km/h 64% 0.0 mm 62 W/m2
14:27 12.0 °C 5.6 °C 1019.9 hPa SW 13.4 km/h 29.4 km/h 65% 0.0 mm 93 W/m2
14:32 12.1 °C 5.9 °C 1019.9 hPa SW 20.9 km/h 25.6 km/h 66% 0.0 mm 144 W/m2
14:37 12.7 °C 6.1 °C 1019.9 hPa WSW 17.2 km/h 25.6 km/h 64% 0.0 mm 94 W/m2
14:42 12.5 °C 5.9 °C 1019.9 hPa WSW 13.4 km/h 25.6 km/h 64% 0.0 mm 99 W/m2
14:47 12.4 °C 5.8 °C 1019.9 hPa WSW 11.1 km/h 28.0 km/h 64% 0.0 mm 217 W/m2
14:52 12.4 °C 6.0 °C 1019.9 hPa West 11.1 km/h 29.4 km/h 65% 0.0 mm 94 W/m2
14:57 12.9 °C 6.1 °C 1019.9 hPa WSW 13.4 km/h 29.4 km/h 63% 0.0 mm 114 W/m2
15:02 13.1 °C 6.4 °C 1019.9 hPa SW 18.3 km/h 24.5 km/h 64% 0.0 mm 90 W/m2
15:07 13.4 °C 6.9 °C 1019.9 hPa SW 13.4 km/h 24.5 km/h 65% 0.0 mm 171 W/m2
15:12 13.3 °C 6.6 °C 1019.9 hPa SW 17.2 km/h 23.3 km/h 64% 0.0 mm 65 W/m2
15:17 12.8 °C 5.9 °C 1019.9 hPa SW 9.7 km/h 30.6 km/h 63% 0.0 mm 80 W/m2
15:22 12.5 °C 5.7 °C 1019.9 hPa WSW 21.9 km/h 30.6 km/h 63% 0.0 mm 85 W/m2
15:27 12.8 °C 6.4 °C 1019.9 hPa WSW 17.2 km/h 31.7 km/h 65% 0.0 mm 107 W/m2
15:33 12.8 °C 5.9 °C 1019.5 hPa WSW 24.5 km/h 31.7 km/h 63% 0.0 mm 141 W/m2
15:38 13.0 °C 6.3 °C 1019.9 hPa WSW 12.2 km/h 28.0 km/h 64% 0.0 mm 132 W/m2
15:43 12.9 °C 6.1 °C 1019.5 hPa WSW 17.2 km/h 30.6 km/h 63% 0.0 mm 114 W/m2
15:48 13.0 °C 6.6 °C 1019.9 hPa WSW 18.3 km/h 30.6 km/h 65% 0.0 mm 101 W/m2
15:53 12.9 °C 6.1 °C 1019.9 hPa SW 19.5 km/h 30.6 km/h 63% 0.0 mm 89 W/m2
15:58 12.9 °C 6.1 °C 1019.9 hPa SW 13.4 km/h 30.6 km/h 63% 0.0 mm 60 W/m2
16:03 12.9 °C 6.3 °C 1019.5 hPa SW 13.4 km/h 27.0 km/h 64% 0.0 mm 80 W/m2
16:08 12.9 °C 6.1 °C 1019.9 hPa SW 14.8 km/h 33.1 km/h 63% 0.0 mm 56 W/m2
16:13 12.8 °C 5.7 °C 1019.9 hPa SW 19.5 km/h 33.1 km/h 62% 0.0 mm 47 W/m2
16:18 12.8 °C 6.2 °C 1019.5 hPa WSW 17.2 km/h 30.6 km/h 64% 0.0 mm 36 W/m2
16:23 12.6 °C 5.7 °C 1019.5 hPa WSW 14.8 km/h 30.6 km/h 63% 0.0 mm 31 W/m2
16:28 12.5 °C 5.9 °C 1019.5 hPa WSW 14.8 km/h 30.6 km/h 64% 0.0 mm 25 W/m2
16:33 12.5 °C 5.9 °C 1019.5 hPa WSW 11.1 km/h 29.4 km/h 64% 0.0 mm 20 W/m2
16:38 12.4 °C 5.8 °C 1019.5 hPa SW 13.4 km/h 25.6 km/h 64% 0.0 mm 15 W/m2
16:43 12.3 °C 5.9 °C 1019.5 hPa SW 19.5 km/h 29.4 km/h 65% 0.0 mm 12 W/m2
16:48 12.2 °C 5.8 °C 1019.5 hPa SW 12.2 km/h 30.6 km/h 65% 0.0 mm 7 W/m2
16:50 12.1 °C 5.7 °C 1019.5 hPa SW 21.9 km/h 30.6 km/h 65% 0.0 mm 5 W/m2
16:55 12.2 °C 5.6 °C 1019.5 hPa SW 14.8 km/h 31.7 km/h 64% 0.0 mm 4 W/m2
17:00 12.1 °C 5.5 °C 1019.5 hPa WSW 19.5 km/h 35.6 km/h 64% 0.0 mm 0 W/m2
17:05 12.3 °C 5.2 °C 1019.9 hPa SW 23.3 km/h 37.8 km/h 62% 0.0 mm 0 W/m2
17:10 12.3 °C 5.2 °C 1019.9 hPa SW 18.3 km/h 37.8 km/h 62% 0.0 mm 0 W/m2
17:15 12.3 °C 5.4 °C 1019.5 hPa SW 19.5 km/h 37.8 km/h 63% 0.0 mm 0 W/m2
17:20 12.3 °C 5.4 °C 1019.9 hPa SW 17.2 km/h 28.0 km/h 63% 0.0 mm 0 W/m2
17:25 12.3 °C 5.4 °C 1019.5 hPa SW 13.4 km/h 29.4 km/h 63% 0.0 mm 0 W/m2
17:30 12.3 °C 5.4 °C 1019.5 hPa SW 13.4 km/h 30.6 km/h 63% 0.0 mm 0 W/m2
17:35 12.3 °C 5.9 °C 1019.5 hPa SW 13.4 km/h 30.6 km/h 65% 0.0 mm 0 W/m2
17:40 12.4 °C 6.0 °C 1019.5 hPa SW 14.8 km/h 28.0 km/h 65% 0.0 mm 0 W/m2
17:45 12.4 °C 5.6 °C 1019.5 hPa SW 15.8 km/h 33.1 km/h 63% 0.0 mm 0 W/m2
17:50 12.6 °C 6.0 °C 1019.9 hPa WSW 23.3 km/h 34.3 km/h 64% 0.0 mm 0 W/m2
17:55 12.6 °C 6.0 °C 1019.9 hPa WSW 27.0 km/h 34.3 km/h 64% 0.0 mm 0 W/m2
18:00 12.6 °C 6.0 °C 1019.9 hPa WSW 24.5 km/h 40.4 km/h 64% 0.0 mm 0 W/m2
18:06 12.6 °C 6.0 °C 1019.9 hPa WSW 12.2 km/h 40.4 km/h 64% 0.0 mm 0 W/m2
18:11 12.5 °C 5.9 °C 1019.9 hPa WSW 20.9 km/h 36.7 km/h 64% 0.0 mm 0 W/m2
18:16 12.5 °C 6.1 °C 1020.2 hPa WSW 24.5 km/h 40.4 km/h 65% 0.0 mm 0 W/m2
18:21 12.6 °C 5.7 °C 1019.9 hPa SW 21.9 km/h 40.4 km/h 63% 0.0 mm 0 W/m2
18:27 12.6 °C 5.7 °C 1020.2 hPa SSW 30.6 km/h 40.4 km/h 63% 0.0 mm 0 W/m2
18:32 12.6 °C 6.0 °C 1020.2 hPa SSW 24.5 km/h 40.4 km/h 64% 0.0 mm 0 W/m2
18:37 12.6 °C 6.0 °C 1020.5 hPa SW 36.7 km/h 43.9 km/h 64% 0.0 mm 0 W/m2
18:42 12.0 °C 6.1 °C 1020.5 hPa SW 19.5 km/h 47.9 km/h 67% 0.0 mm 0 W/m2
18:47 11.7 °C 6.8 °C 1020.5 hPa SW 23.3 km/h 47.9 km/h 72% 0.0 mm 0 W/m2
18:52 11.3 °C 7.1 °C 1020.5 hPa SW 24.5 km/h 46.5 km/h 75% 0.0 mm 0 W/m2
18:57 11.2 °C 7.1 °C 1020.9 hPa SSW 28.0 km/h 46.5 km/h 76% 0.0 mm 0 W/m2
19:02 11.0 °C 7.1 °C 1020.5 hPa SSW 15.8 km/h 45.4 km/h 77% 0.0 mm 0 W/m2
19:07 11.3 °C 7.4 °C 1020.5 hPa SSW 20.9 km/h 37.8 km/h 77% 0.0 mm 0 W/m2
19:12 11.7 °C 7.0 °C 1020.9 hPa SW 23.3 km/h 37.8 km/h 73% 0.0 mm 0 W/m2
19:17 11.3 °C 6.8 °C 1020.9 hPa SSW 25.6 km/h 39.3 km/h 74% 0.3 mm 0 W/m2
19:22 11.1 °C 6.8 °C 1020.9 hPa SW 17.2 km/h 39.3 km/h 75% 0.3 mm 0 W/m2
19:27 11.0 °C 6.9 °C 1020.9 hPa SW 28.0 km/h 45.4 km/h 76% 0.3 mm 0 W/m2
19:32 11.1 °C 7.1 °C 1020.9 hPa SW 21.9 km/h 45.4 km/h 76% 0.3 mm 0 W/m2
19:37 11.4 °C 6.9 °C 1020.9 hPa SW 23.3 km/h 36.7 km/h 74% 0.3 mm 0 W/m2
19:42 11.1 °C 7.4 °C 1020.9 hPa SSW 24.5 km/h 40.4 km/h 78% 0.5 mm 0 W/m2
19:47 10.8 °C 7.8 °C 1020.9 hPa SSW 23.3 km/h 40.4 km/h 82% 0.5 mm 0 W/m2
19:52 11.2 °C 7.7 °C 1021.2 hPa SSW 33.1 km/h 43.9 km/h 79% 0.5 mm 0 W/m2
19:57 10.6 °C 7.8 °C 1020.9 hPa SSW 13.4 km/h 43.9 km/h 83% 0.5 mm 0 W/m2
20:02 10.4 °C 7.8 °C 1020.9 hPa SW 15.8 km/h 41.7 km/h 84% 0.5 mm 0 W/m2
20:07 10.6 °C 8.0 °C 1021.2 hPa SW 18.3 km/h 29.4 km/h 84% 0.5 mm 0 W/m2
20:12 10.9 °C 8.3 °C 1020.9 hPa SW 27.0 km/h 35.6 km/h 84% 0.5 mm 0 W/m2
20:17 11.3 °C 7.6 °C 1020.9 hPa SW 23.3 km/h 43.9 km/h 78% 0.3 mm 0 W/m2
20:22 11.2 °C 7.3 °C 1021.2 hPa SW 25.6 km/h 45.4 km/h 77% 0.3 mm 0 W/m2
20:27 11.2 °C 7.7 °C 1021.2 hPa SW 19.5 km/h 45.4 km/h 79% 0.3 mm 0 W/m2
20:32 11.0 °C 7.7 °C 1021.2 hPa SW 13.4 km/h 36.7 km/h 80% 0.3 mm 0 W/m2
20:37 11.0 °C 8.1 °C 1021.2 hPa SW 13.4 km/h 30.6 km/h 82% 0.3 mm 0 W/m2
20:42 11.1 °C 7.9 °C 1021.2 hPa WSW 14.8 km/h 28.0 km/h 81% 0.0 mm 0 W/m2
20:47 11.1 °C 7.4 °C 1021.2 hPa WSW 30.6 km/h 41.7 km/h 78% 0.0 mm 0 W/m2
20:52 11.1 °C 7.4 °C 1021.2 hPa WSW 23.3 km/h 41.7 km/h 78% 0.0 mm 0 W/m2
20:57 11.1 °C 7.2 °C 1020.9 hPa SW 17.2 km/h 39.3 km/h 77% 0.0 mm 0 W/m2
21:02 11.1 °C 7.2 °C 1021.2 hPa WSW 24.5 km/h 39.3 km/h 77% 0.0 mm 0 W/m2
21:20 10.9 °C 7.8 °C 1021.2 hPa SW 21.9 km/h 31.7 km/h 81% 0.3 mm 0 W/m2
21:26 10.5 °C 7.9 °C 1021.6 hPa SSW 20.9 km/h 34.3 km/h 84% 1.5 mm 0 W/m2
21:31 10.2 °C 8.1 °C 1021.6 hPa SSW 21.9 km/h 41.7 km/h 87% 2.3 mm 0 W/m2
21:36 10.0 °C 8.4 °C 1021.6 hPa SSW 12.2 km/h 41.7 km/h 90% 3.6 mm 0 W/m2
21:41 10.0 °C 8.6 °C 1021.6 hPa SSW 20.9 km/h 31.7 km/h 91% 4.3 mm 0 W/m2
21:46 10.0 °C 8.8 °C 1021.6 hPa SW 15.8 km/h 31.7 km/h 92% 5.3 mm 0 W/m2
21:51 10.1 °C 9.0 °C 1021.6 hPa SSW 14.8 km/h 29.4 km/h 93% 6.3 mm 0 W/m2
21:56 10.0 °C 9.1 °C 1021.6 hPa South 18.3 km/h 29.4 km/h 94% 7.6 mm 0 W/m2
22:01 9.9 °C 9.1 °C 1021.6 hPa South 14.8 km/h 34.3 km/h 95% 8.4 mm 0 W/m2
22:06 9.9 °C 9.1 °C 1021.6 hPa SSW 18.3 km/h 34.3 km/h 95% 8.9 mm 0 W/m2
22:11 9.9 °C 9.1 °C 1021.6 hPa SW 20.9 km/h 31.7 km/h 95% 9.4 mm 0 W/m2
22:16 9.8 °C 9.1 °C 1021.6 hPa SW 20.9 km/h 34.3 km/h 95% 8.9 mm 0 W/m2
22:21 9.9 °C 9.1 °C 1021.6 hPa SSW 14.8 km/h 34.3 km/h 95% 8.6 mm 0 W/m2
22:26 9.9 °C 9.1 °C 1021.6 hPa SW 13.4 km/h 29.4 km/h 95% 7.9 mm 0 W/m2
22:31 9.9 °C 9.1 °C 1021.6 hPa SW 14.8 km/h 29.4 km/h 95% 6.6 mm 0 W/m2
22:36 9.9 °C 9.1 °C 1021.6 hPa SW 15.8 km/h 29.4 km/h 95% 5.6 mm 0 W/m2
22:41 9.9 °C 9.1 °C 1021.6 hPa SW 15.8 km/h 24.5 km/h 95% 5.3 mm 0 W/m2
22:46 10.0 °C 9.1 °C 1021.6 hPa SSW 19.5 km/h 28.0 km/h 94% 4.6 mm 0 W/m2
22:51 9.9 °C 9.1 °C 1021.6 hPa SSW 21.9 km/h 35.6 km/h 95% 3.8 mm 0 W/m2
22:56 9.9 °C 9.1 °C 1021.6 hPa SSW 18.3 km/h 35.6 km/h 95% 2.8 mm 0 W/m2
23:01 9.9 °C 9.0 °C 1021.6 hPa SSW 19.5 km/h 34.3 km/h 94% 1.8 mm 0 W/m2
23:06 9.8 °C 8.9 °C 1021.6 hPa SW 13.4 km/h 34.3 km/h 94% 1.5 mm 0 W/m2
23:11 9.8 °C 9.1 °C 1021.6 hPa SW 15.8 km/h 29.4 km/h 95% 1.3 mm 0 W/m2
23:16 9.8 °C 9.1 °C 1021.6 hPa SW 13.4 km/h 31.7 km/h 95% 1.5 mm 0 W/m2
23:21 9.7 °C 8.9 °C 1021.6 hPa SW 20.9 km/h 31.7 km/h 95% 1.5 mm 0 W/m2
23:26 9.8 °C 9.1 °C 1021.2 hPa SW 13.4 km/h 30.6 km/h 95% 1.8 mm 0 W/m2
23:31 9.8 °C 9.2 °C 1021.6 hPa SW 17.2 km/h 30.6 km/h 96% 1.8 mm 0 W/m2
23:36 9.8 °C 9.2 °C 1021.6 hPa SW 19.5 km/h 28.0 km/h 96% 1.8 mm 0 W/m2
23:41 9.7 °C 9.1 °C 1021.6 hPa SW 17.2 km/h 28.0 km/h 96% 1.3 mm 0 W/m2
23:46 9.7 °C 9.1 °C 1021.6 hPa SW 14.8 km/h 29.4 km/h 96% 1.5 mm 0 W/m2
23:51 9.7 °C 9.1 °C 1021.6 hPa SW 18.3 km/h 29.4 km/h 96% 1.3 mm 0 W/m2
23:56 9.7 °C 9.1 °C 1021.6 hPa SW 11.1 km/h 29.4 km/h 96% 1.3 mm 0 W/m2
Northern Hawkes Bay. New Zealand Historic Data
Compliments of Weather Underground - 2 mb